RH
45 45 44 44 42 36 26 19 16 16 14 15 19 23 25 25 23 24 28 29 30 30 29 28 27 27 26 26 27 27 28 32 36 42 48 48 46 46 47 48 50 53 56 57 57 58 59 61 64 64 64 66 67 69 69 66 63 62 62 62 61 59 59
50 49 49 50 49 43 33 24 20 21 20 17 18 23 29 29 26 27 30 31 31 30 29 28 27 26 26 26 26 26 25 26 28 30 34 36 39 43 46 48 50 52 56 57 58 59 59 60 63 63 63 64 64 63 62 60 56 53 54 55 55 53 53
55 54 50 47 48 45 39 31 27 28 28 24 21 21 26 29 27 26 28 29 29 29 28 28 28 26 25 23 22 22 22 23 25 27 30 34 37 41 43 46 50 52 55 56 57 58 58 60 62 61 60 58 55 51 50 49 48 46 47 49 51 51 50
51 51 45 42 46 48 43 36 31 31 31 30 26 22 23 27 26 25 25 25 24 24 24 24 23 20 18 16 16 19 20 21 23 25 26 28 30 33 37 41 43 45 46 49 51 52 54 55 56 55 51 45 40 39 39 39 39 37 37 38 39 40 40
52 52 49 47 50 52 48 42 36 32 31 30 26 22 22 26 27 25 22 19 18 18 17 16 13 12 10 10 14 18 20 21 21 20 19 17 16 19 24 28 32 34 34 35 35 35 35 36 36 36 32 27 24 26 29 29 29 28 28 28 28 29 30
61 62 59 57 57 58 53 46 39 33 32 29 24 21 22 26 26 23 18 14 14 14 13 12 11 10 10 10 11 13 14 15 15 13 11 10 9 10 13 16 19 21 21 20 18 17 16 16 16 17 18 17 18 22 24 25 26 27 27 27 27 27 27
65 64 66 66 65 64 57 49 41 34 31 29 24 20 22 24 23 18 14 13 13 13 13 13 12 11 11 11 11 11 11 11 11 11 11 11 11 11 11 12 13 13 13 13 12 12 12 12 12 12 13 15 18 23 25 25 26 25 25 26 25 25 24
64 61 69 74 71 67 58 48 40 35 33 30 25 21 20 20 18 15 14 14 13 12 12 12 12 12 11 11 11 11 11 10 11 11 11 11 11 11 11 10 10 10 10 10 10 10 10 10 11 10 10 11 16 21 24 24 24 23 23 22 21 21 20
69 67 72 75 73 67 55 46 41 36 34 33 28 22 19 17 15 15 15 14 13 13 12 11 11 10 10 10 10 10 10 10 10 9 9 9 9 9 9 9 9 9 10 11 12 13 14 14 14 14 11 10 12 16 20 21 21 21 20 18 17 16 16
66 67 70 70 68 61 48 44 44 40 37 35 32 26 21 19 17 16 16 15 15 14 13 13 12 11 11 12 12 11 11 11 11 11 11 11 12 13 13 13 13 14 16 19 21 22 23 24 24 22 21 19 16 15 17 19 18 18 17 16 15 14 13
62 62 65 65 65 57 48 47 48 46 42 38 36 33 27 24 22 20 19 19 18 19 19 18 19 19 19 19 20 21 21 21 21 21 20 20 20 21 21 21 21 23 25 27 28 29 30 29 29 28 28 27 26 24 23 22 22 21 20 20 19 19 18
60 59 59 62 63 57 54 54 53 51 47 42 40 40 37 33 29 26 25 25 25 25 26 26 27 27 28 28 29 30 31 31 32 32 31 30 29 29 29 29 29 29 30 31 31 32 32 31 31 31 30 29 29 29 28 27 27 26 25 25 24 24 23
53 53 54 58 58 54 54 55 53 52 50 46 45 45 43 41 37 34 31 30 31 31 31 32 33 34 34 35 35 35 36 35 35 36 36 35 35 34 34 33 33 34 34 35 36 35 36 36 37 37 37 35 34 32 32 31 30 30 29 29 28 27 25
50 51 53 57 57 55 55 53 51 54 54 52 50 47 44 43 42 41 36 33 33 34 34 35 36 37 38 39 39 38 38 37 36 36 37 37 36 36 37 36 36 37 38 39 39 40 40 40 42 42 43 43 42 42 40 38 37 36 35 34 33 32 31
53 54 54 58 58 57 56 51 49 55 58 55 50 45 42 42 44 46 43 38 35 35 36 37 39 40 41 42 42 41 40 39 37 37 37 38 39 40 41 41 40 40 40 41 42 42 42 43 44 44 44 44 45 44 44 43 42 40 39 39 38 37 35
52 53 53 57 57 56 56 50 49 55 60 59 54 49 46 46 48 51 50 45 40 41 43 43 45 47 48 49 48 47 45 43 41 40 40 42 44 46 47 46 45 44 43 43 43 42 42 42 42 43 44 44 45 45 45 43 43 42 41 40 39 38 37
48 47 50 55 55 53 53 50 48 53 59 60 59 59 60 58 57 60 60 57 54 54 55 55 55 56 57 59 59 58 57 54 51 48 47 48 50 52 53 53 52 51 49 48 47 44 41 40 41 42 42 44 45 45 45 44 43 42 41 39 37 36 35
46 46 50 54 53 52 54 53 51 54 59 61 60 64 69 69 67 66 66 66 67 68 68 68 67 66 65 65 66 67 67 66 64 61 59 59 58 58 58 57 56 55 53 52 52 50 46 43 43 43 43 45 46 46 46 45 43 42 41 40 38 35 33
47 49 52 53 52 53 56 55 51 52 60 64 63 64 69 69 66 64 64 66 68 71 75 77 77 76 74 72 73 74 75 74 74 73 71 70 70 69 66 63 60 58 55 54 54 54 51 48 46 45 46 48 48 47 47 47 46 44 42 41 40 38 36
49 53 56 56 54 54 54 52 48 48 56 64 64 64 65 65 64 64 65 67 69 71 76 79 80 81 81 79 77 78 79 80 81 80 77 74 74 74 74 71 68 65 62 60 59 58 57 55 52 50 49 49 48 47 47 47 46 44 43 42 41 39 38
47 49 55 58 58 56 54 50 47 47 52 59 62 62 62 63 65 68 70 72 72 71 74 76 79 83 85 83 82 80 81 83 83 81 79 76 74 74 76 75 75 74 72 69 67 64 63 62 62 59 54 50 48 48 46 45 45 44 42 41 40 40 40
46 47 53 58 59 58 54 51 49 49 52 58 62 65 65 64 66 71 76 79 76 75 79 82 82 83 85 85 82 78 75 77 79 76 74 74 75 76 76 74 75 77 78 76 75 72 69 68 68 66 60 55 53 53 50 48 48 48 47 45 44 45 45
48 49 53 57 60 59 55 53 51 50 52 59 65 70 73 72 71 73 78 81 79 77 81 85 85 85 86 85 81 74 69 70 73 72 69 70 73 74 74 74 78 82 83 82 80 77 75 73 71 70 66 61 59 57 53 52 52 51 50 49 51 52 53
49 50 53 56 58 59 59 58 56 54 55 60 67 72 72 72 74 76 80 85 83 78 79 86 87 86 83 80 77 73 67 65 67 67 66 66 69 71 71 72 75 77 80 81 79 79 78 76 75 73 68 63 59 57 56 57 57 55 52 52 54 56 57
51 52 54 57 57 57 59 59 58 58 58 61 68 71 68 69 73 75 80 85 83 77 78 81 81 77 75 74 73 71 67 64 63 64 64 65 66 65 64 63 62 63 66 68 68 68 68 67 67 64 59 56 55 54 54 56 58 56 53 52 55 57 56
54 56 58 59 57 55 54 53 55 56 56 59 66 71 72 75 76 74 76 79 76 72 70 69 68 68 67 65 63 60 59 59 60 61 62 61 60 59 57 55 53 52 52 54 54 53 52 52 52 51 49 49 50 52 54 57 58 58 55 53 55 54 51
58 61 62 62 60 58 54 52 53 55 55 59 67 73 74 73 71 69 70 70 68 64 61 60 60 59 55 51 48 46 45 47 48 48 47 46 46 47 50 51 51 49 49 49 49 48 47 45 44 43 42 45 49 54 57 59 59 58 56 54 51 48 46
62 65 67 67 65 62 58 55 54 55 55 58 64 67 65 62 59 58 59 59 58 56 53 51 51 50 48 45 43 42 41 41 41 40 38 36 35 37 42 46 48 49 48 47 46 46 45 43 42 41 42 47 55 58 58 58 56 53 51 48 44 43 45
59 62 64 63 64 61 60 59 58 57 56 56 56 55 53 51 51 51 52 53 52 50 47 48 48 47 46 44 42 41 41 41 41 39 38 37 36 37 39 43 45 46 46 45 44 43 42 41 41 41 43 48 53 53 52 51 49 46 43 42 41 44 45
57 60 61 63 65 65 63 62 61 58 56 53 50 48 47 46 47 49 51 52 52 50 48 47 46 44 42 41 41 42 42 43 43 42 39 38 36 35 36 39 41 42 42 42 41 40 40 40 40 41 42 45 46 45 44 42 41 40 40 41 42 42 41
58 61 64 65 68 68 65 62 59 55 52 50 48 48 47 46 47 49 51 52 52 50 48 46 44 43 41 40 39 39 39 40 41 39 38 36 34 32 32 34 37 39 40 40 40 39 39 39 39 40 42 43 42 40 38 37 36 37 37 38 38 37 35
64 64 66 67 68 68 66 62 58 55 54 54 53 52 49 48 48 48 49 50 49 48 47 46 45 44 42 39 37 37 39 39 38 36 35 34 33 32 33 35 38 39 40 39 38 38 38 38 38 37 38 39 38 36 35 34 35 36 36 37 37 35 32
72 70 70 70 69 69 67 64 61 60 60 60 59 58 55 53 52 52 50 50 49 48 47 46 46 45 42 39 39 41 42 43 41 40 38 38 37 37 38 41 42 42 41 41 40 40 39 38 37 36 37 38 37 35 35 36 38 39 40 39 36 31 27
76 75 74 73 72 71 68 67 65 64 64 63 61 61 60 60 59 58 56 55 53 53 51 50 49 48 44 43 45 46 46 47 46 44 43 43 43 43 44 44 43 42 43 43 42 41 40 39 38 38 37 37 36 36 36 37 38 39 37 34 30 27 26
77 78 78 76 74 73 71 70 70 70 69 67 63 60 59 60 60 60 60 58 57 56 54 53 52 51 48 46 47 47 49 50 49 48 48 48 48 47 45 44 43 42 42 42 41 40 40 40 40 40 39 39 39 39 38 38 38 37 34 30 28 27 27
71 75 76 76 75 76 74 71 71 71 69 68 66 63 60 59 58 57 55 55 55 55 55 55 55 54 50 46 46 49 52 53 53 52 52 51 50 48 46 45 44 43 42 41 40 39 39 39 41 41 41 41 40 38 37 37 37 35 32 29 28 28 29
64 66 69 69 69 72 74 73 72 71 70 69 68 66 63 60 58 55 54 54 54 54 55 57 57 54 49 46 48 52 55 56 56 55 55 54 52 50 47 46 45 44 42 41 40 39 39 40 41 41 40 39 37 36 37 37 35 32 29 28 28 29 31